Weather in Chernyy Anuy

Russia / Altai Republic     51°21′23″N   84°43′36″E
temp.,
°C
wind,
m/s
gust,
m/s
humid.,
%
clouds,
%
prec.,
mm/h
press.,
hPa
HPBL,
m
19 april, mon
mon1901:00+1s48798 0.0 1014143
04:00+1s477476 0.0 1011117
07:00+5sw6136355 0.0 1008879
10:00−2n5697100 5.0 1015329
13:00−2n4486100 7.8 1018604
16:00−4n4489100 2.0 1020600
19:00−6nne3492100 3.7 1020428
22:00−8n249597 1.1 1022336
20 april, tue
tue2001:00−9nnw239798 1.3 1023183
04:00−9nnw2395100 0.2 1023218
07:00−10nnw2393100 0.4 1023262
10:00−8n2279100 0.2 1023829
13:00−6n3372100 0.4 10221078
16:00−5n4475100 0.2 1021962
19:00−7n3484100 0.4 1022629
22:00−9n2395100 0.1 1024233
21 april, wed
wed2101:00−12nnw1110083 0.2 102653
04:00−14ssw0010078 0.0 102612
07:00−14ssw119523 0.1 102532
10:00−7ene01664 0.0 1022532
13:00−3nnw22535 0.0 1019951
16:00−2n325998 0.0 10191096
19:00−5nnw346897 0.1 1021742
22:00−6nnw2380100 0.0 1024371
22 april, thu
thu2201:00−7nnw1290100 0.3 1025230
04:00−8nnw2392100 0.2 1026245
07:00−8n2391100 0.4 1029328
10:00−6n3377100 0.3 1030930
13:00−4n3472100 0.7 10301294
16:00−4n4567100 0.6 10321336
19:00−5n3577100 1.0 1034874
22:00−8nw2394100 0.2 103887
23 april, fri
fri2301:00−7nw239399 0.3 1037146
04:00−7nw2495100 0.3 1037202
07:00−7nnw2494100 0.3 1037332
10:00−4n356899 0.1 10361116
13:00−3n3467100 0.3 10351156
16:00−2n336296 0.3 10331249
19:00−2n336443 0.4 1033908
22:00−7wnw119427 0.0 103533